Lapse_Rate
5.8 5.5 5.3 5.1 4.7 4.5 4.6 5.0 4.9 4.8 4.2 3.7 3.7 3.5 4.5 3.8 3.9 4.2 5.2 5.5 5.7 5.8 5.9 5.8 5.9 6.1 6.0 6.1 6.0 5.9 5.9 5.9 6.0 6.0 6.1 5.9 6.0 6.2
6.1 5.7 5.3 5.1 4.6 4.2 4.6 4.9 4.7 4.8 5.0 4.3 4.8 4.7 5.0 4.2 4.1 4.6 4.6 5.4 5.9 5.9 5.6 5.7 5.7 5.9 6.0 6.0 6.0 6.0 6.0 6.0 6.0 5.9 6.0 6.0 5.9 6.0
6.1 5.9 5.7 5.3 4.9 4.4 4.0 4.6 4.4 4.4 4.4 5.1 4.8 4.8 5.1 5.4 4.7 4.4 4.9 5.6 5.9 6.0 6.0 5.8 5.7 5.6 5.7 5.8 5.9 6.0 6.1 6.0 6.0 6.0 5.9 6.0 5.9 5.9
6.1 5.8 5.5 5.3 4.8 4.5 4.8 4.6 4.4 4.4 4.3 4.4 4.9 4.7 4.6 4.9 5.2 5.2 5.6 5.8 6.0 6.0 6.0 6.2 6.3 6.1 5.9 5.7 5.8 5.9 5.9 6.0 5.9 6.1 6.0 6.0 5.9 5.9
5.8 5.7 5.4 5.3 4.9 4.8 4.5 4.4 3.9 4.0 3.9 4.2 4.2 4.4 4.7 5.3 5.0 5.3 5.7 6.0 6.0 6.1 6.5 6.5 6.4 6.3 6.2 6.1 5.9 5.9 5.8 6.0 6.1 6.1 6.2 6.0 5.9 5.9
5.8 5.8 5.5 5.2 4.9 4.7 4.7 4.7 4.5 4.9 4.3 4.4 4.0 4.1 4.0 5.0 4.6 4.9 5.2 4.7 4.9 5.4 6.5 6.6 6.6 6.7 6.8 6.7 6.8 6.4 6.1 6.1 6.4 6.4 6.2 6.1 6.0 5.9
5.7 5.4 5.2 5.3 5.0 4.8 4.8 4.9 4.8 4.9 4.4 4.1 3.9 3.8 4.8 5.2 5.2 5.3 5.2 4.7 5.7 6.0 6.1 6.5 6.6 6.9 7.1 7.0 6.9 6.6 6.6 6.4 6.5 6.8 6.4 6.3 6.0 5.9
5.7 5.5 5.6 5.5 5.6 5.3 5.1 5.2 5.3 4.8 4.6 4.6 4.6 4.7 5.4 5.6 5.7 5.8 5.8 5.8 5.9 6.3 6.1 6.6 6.8 7.2 7.4 7.1 6.9 6.6 6.7 6.5 6.3 6.9 6.9 6.3 6.3 6.0
5.7 5.7 5.8 5.6 5.5 5.5 5.4 5.2 5.7 5.3 5.1 4.8 4.6 5.0 5.5 5.8 5.9 6.0 6.1 6.1 5.9 6.3 6.3 6.9 6.7 6.8 6.8 6.9 6.4 5.4 5.8 6.0 6.1 6.7 7.1 6.6 6.3 6.4
5.6 5.3 5.2 5.4 5.5 5.3 5.1 5.7 5.5 5.4 5.1 5.4 5.3 5.6 5.6 5.5 5.6 5.7 6.1 6.2 6.4 6.5 6.7 6.8 6.3 6.6 6.7 6.2 5.4 5.0 5.3 5.9 5.9 6.1 6.8 6.6 6.4 6.4
4.8 4.7 4.8 5.1 5.5 5.4 5.5 5.4 5.7 5.6 5.5 5.7 6.0 5.8 5.4 5.3 5.7 6.0 6.2 5.9 6.2 6.3 6.7 6.1 6.1 6.6 6.1 5.8 5.6 5.0 4.9 5.0 5.9 6.1 6.6 6.4 6.2 6.3
5.1 5.0 5.1 5.2 5.3 5.1 5.3 5.4 5.6 5.6 5.7 5.8 5.7 5.5 5.6 6.0 6.2 6.0 6.0 6.0 6.2 6.6 6.6 5.7 6.5 6.3 5.9 6.2 6.0 4.9 4.9 5.0 5.2 6.1 6.6 6.3 6.2 5.9
5.2 5.4 5.4 5.4 5.4 5.5 5.6 5.8 5.9 5.9 6.0 5.9 6.0 6.0 6.2 6.3 6.3 6.3 6.2 6.0 6.2 6.3 6.1 5.8 6.4 5.7 4.7 5.1 6.0 5.2 5.0 4.7 4.6 5.4 6.7 6.6 6.0 5.7
5.7 5.4 5.6 5.6 6.0 6.1 6.2 6.2 6.1 6.3 6.1 6.1 6.2 6.4 6.4 6.4 6.5 6.5 6.5 6.4 6.2 6.0 5.9 5.5 5.6 5.0 4.7 5.3 5.4 5.4 4.9 5.0 5.1 5.0 5.7 5.8 5.7 5.6
5.7 5.9 5.9 6.1 6.3 6.4 6.4 6.3 6.2 6.2 6.3 6.2 6.4 6.6 6.5 6.6 6.7 6.5 6.7 6.7 6.6 6.3 5.5 5.2 5.3 5.1 4.9 5.6 5.7 5.3 5.2 5.4 5.1 5.2 5.4 5.4 5.4 5.4
6.0 6.0 6.2 6.4 6.5 6.3 6.2 6.3 6.3 6.0 6.0 6.5 6.6 6.6 6.6 6.7 6.6 6.5 6.8 6.7 6.6 6.3 5.8 5.4 5.2 5.0 5.2 5.8 5.4 5.6 5.6 5.8 5.6 5.3 5.1 5.3 5.1 5.1
6.3 6.4 6.5 6.5 6.3 6.4 6.5 6.5 6.1 6.3 6.5 6.7 6.7 6.8 6.9 6.8 6.7 6.4 6.6 6.5 6.3 6.0 5.9 5.7 5.8 5.0 5.1 5.6 5.8 5.8 5.8 5.6 5.7 5.5 5.3 5.3 5.1 5.2
6.4 6.4 6.4 6.4 6.2 6.2 6.3 6.3 6.3 6.6 6.6 6.6 6.8 6.8 6.9 6.9 6.8 6.6 6.4 6.2 5.9 5.8 5.7 5.6 5.6 5.4 5.3 5.6 5.6 6.0 5.8 4.9 5.4 5.7 5.6 5.5 5.5 5.5
6.4 6.4 6.3 6.1 6.0 6.1 6.2 6.3 6.4 6.5 6.6 6.7 6.7 6.7 6.9 6.9 6.8 6.6 6.5 6.3 6.0 5.7 5.6 5.4 5.4 5.0 5.0 5.0 5.2 5.6 5.9 5.9 4.8 5.6 6.0 6.0 6.1 5.9
6.3 6.0 5.9 5.8 5.9 6.1 6.3 6.4 6.6 6.7 6.7 6.7 6.7 6.8 6.8 6.8 6.7 6.7 6.6 6.4 6.1 5.8 5.6 5.2 5.5 5.0 4.7 4.6 4.8 5.6 5.9 6.2 6.4 5.4 6.3 6.1 6.2 6.2
6.1 5.7 5.6 5.6 5.8 5.9 6.3 6.5 6.6 6.6 6.7 6.6 6.7 6.7 6.7 6.6 6.6 6.6 6.5 6.3 6.1 5.7 5.5 5.4 5.5 5.2 4.9 4.5 4.9 4.9 5.4 5.9 6.1 6.3 5.8 5.4 5.9 6.0
5.9 5.7 5.8 6.1 6.1 6.2 6.3 6.5 6.6 6.7 6.8 6.8 6.7 6.7 6.6 6.6 6.6 6.6 6.5 6.3 6.1 5.8 5.5 5.3 5.1 5.3 5.2 4.9 4.5 4.6 5.0 5.0 5.9 6.2 5.9 5.7 5.8 5.8
5.6 5.7 6.3 6.4 6.4 6.4 6.5 6.7 6.8 6.9 6.8 6.8 6.8 6.7 6.6 6.6 6.5 6.4 6.4 6.2 6.1 5.9 5.7 5.4 5.3 5.6 5.2 4.9 4.7 4.4 4.3 4.8 4.9 5.8 5.8 5.6 5.3 5.2
Wind_Speed
7 8 8 7 6 6 6 6 9 9 9 7 7 4 8 9 9 13 14 11 8 14 15 15 16 16 16 19 19 20 21 23 24 26 24 23 27 30
7 7 7 8 8 6 6 7 7 9 11 9 8 9 8 10 14 13 15 14 20 23 19 19 19 19 20 21 22 23 23 24 25 25 27 26 26 29
9 8 9 8 8 7 5 7 7 8 10 11 10 10 9 9 11 15 17 18 19 18 21 18 19 23 23 24 24 25 25 26 26 27 27 29 28 29
10 10 9 7 7 8 8 8 8 9 10 12 11 11 11 10 10 11 12 18 18 17 13 19 25 29 28 26 27 28 27 27 27 28 29 30 30 31
10 10 10 8 9 8 8 9 9 7 8 10 10 10 11 10 11 8 11 10 18 22 27 31 30 29 29 29 29 29 30 31 30 29 29 30 31 31
10 10 10 10 10 9 9 10 9 8 10 10 9 10 7 10 8 9 9 11 11 15 17 23 28 26 28 30 29 30 30 31 32 30 30 31 31 32
11 12 12 12 8 8 9 8 9 10 8 10 11 11 9 8 11 12 13 12 10 13 13 13 15 13 19 23 24 25 22 24 29 30 29 30 31 32
10 10 8 8 9 7 9 10 10 9 11 11 12 13 13 12 12 11 12 13 14 12 13 15 14 16 15 23 25 24 24 24 23 28 29 29 29 30
9 7 7 6 5 11 10 11 13 14 14 11 13 13 13 13 13 11 14 14 14 14 14 16 14 16 16 21 24 21 20 24 28 30 28 29 30 30
6 3 4 8 8 12 10 11 10 10 10 9 11 11 12 12 12 13 15 15 13 14 15 16 14 16 16 16 27 29 33 34 33 30 29 28 28 29
7 6 5 5 4 3 8 9 10 10 5 8 8 13 17 18 14 9 11 10 12 13 15 15 15 16 17 17 17 29 30 30 29 27 27 26 26 27
5 5 6 4 6 4 8 8 9 10 7 10 11 11 14 13 16 11 9 9 13 15 13 14 16 13 11 13 14 14 15 17 22 25 25 24 22 14
5 5 4 7 4 7 6 7 6 5 9 10 10 10 10 10 9 8 10 11 13 15 14 13 11 13 10 13 13 12 13 13 12 13 25 24 23 22
6 4 7 9 5 5 7 5 2 6 9 8 9 10 9 10 10 10 13 12 15 15 15 15 11 13 14 16 16 13 10 9 11 13 14 17 22 26
3 8 10 7 7 8 8 4 6 8 7 8 9 9 9 10 13 13 12 13 13 14 14 14 10 15 14 15 14 11 9 10 11 11 9 12 12 10
6 5 3 3 2 6 7 8 7 6 7 8 9 8 9 10 11 11 11 12 12 12 14 17 13 14 14 12 9 9 8 5 9 6 5 6 9 12
3 5 6 6 5 5 4 5 5 6 6 7 8 9 9 10 10 10 11 11 11 11 13 14 13 14 11 10 4 6 8 8 7 4 4 4 7 11
4 5 5 4 5 5 5 5 5 4 6 6 8 8 9 9 10 10 10 10 10 11 9 14 12 12 12 4 1 8 7 7 7 4 3 6 6 8
6 3 4 4 4 4 5 5 5 5 5 8 7 8 8 8 9 10 10 11 10 12 8 13 12 10 12 13 5 5 10 11 9 8 5 5 5 7
4 3 4 4 4 5 4 5 5 5 6 6 7 7 7 8 9 9 10 11 12 12 8 10 10 10 9 8 8 10 8 9 8 8 5 5 5 4
3 3 3 4 4 4 4 4 5 6 5 6 6 6 7 7 8 9 10 9 11 10 11 11 10 20 9 8 10 8 10 17 11 8 6 4 3 4
3 4 3 3 4 4 4 4 5 5 4 5 5 6 6 7 8 10 10 10 10 10 3 6 7 8 6 7 10 14 10 10 12 12 14 12 2 3
4 4 4 4 3 3 4 5 4 4 4 4 5 6 6 7 8 8 9 10 10 9 11 9 7 5 7 7 9 10 16 13 10 12 12 24 24 29
Wind_Direction
244 242 256 269 275 271 283 275 296 301 298 302 305 251 258 284 302 291 283 272 243 274 272 278 285 283 286 288 285 282 281 278 273 270 269 268 250 241
243 246 257 272 272 259 270 280 274 292 296 304 300 302 289 289 291 283 280 282 267 257 247 261 273 279 280 277 277 277 276 274 271 267 264 260 255 246
246 248 251 260 265 273 273 267 277 279 278 292 302 296 304 275 281 283 288 290 284 257 246 253 269 275 271 272 273 272 271 270 267 264 260 256 251 246
235 242 249 249 240 249 258 263 286 294 292 287 293 294 284 292 279 276 274 287 285 284 280 267 266 268 268 265 263 264 263 262 262 259 257 254 248 244
244 243 253 255 260 271 288 289 287 286 269 266 285 286 294 290 280 263 264 279 272 258 246 251 256 258 260 259 257 256 255 255 256 253 249 251 248 242
247 254 257 254 257 265 270 270 271 272 277 271 264 279 284 295 282 276 286 290 299 297 291 273 269 266 257 252 253 254 250 246 247 246 241 241 243 240
247 251 247 252 257 249 262 277 293 276 295 291 282 304 290 291 305 306 297 303 300 279 287 294 292 286 287 282 276 271 254 245 239 243 241 236 235 234
256 273 289 285 245 246 238 255 275 273 279 285 289 294 296 291 284 298 305 295 293 294 296 288 289 283 286 285 279 274 266 259 250 238 236 231 232 230
255 274 298 287 300 267 238 225 236 228 230 263 278 287 296 291 307 304 294 295 290 297 298 286 285 286 284 288 294 278 264 266 259 246 234 226 224 229
244 261 309 289 277 264 258 264 275 274 265 256 283 296 298 307 302 295 290 286 282 278 266 277 289 294 304 292 290 284 275 266 261 246 236 225 218 221
219 233 217 245 243 189 258 267 277 285 246 201 235 258 261 264 261 292 288 297 295 298 289 286 296 303 301 298 290 281 273 265 254 242 230 223 212 214
236 252 183 245 136 189 262 274 277 278 299 301 288 260 246 266 233 247 268 271 279 293 302 300 308 313 300 300 289 294 283 279 247 234 224 219 203 219
240 220 187 147 201 203 234 268 283 322 279 271 284 296 297 290 291 295 304 294 296 295 305 312 300 295 280 295 289 284 283 273 267 245 220 208 193 205
243 229 125 142 191 213 233 132 163 267 267 284 294 295 301 303 306 312 304 286 288 289 295 294 292 290 289 289 287 288 269 263 262 261 218 200 192 195
252 71 110 181 218 227 226 212 238 253 283 291 294 300 303 309 304 286 295 296 282 288 303 307 296 290 287 283 284 277 287 289 285 269 207 187 188 198
143 160 102 340 27 56 165 205 242 281 305 303 293 301 298 300 305 308 312 309 308 310 319 312 309 309 308 298 289 286 287 304 298 226 193 187 193 204
168 217 223 231 244 226 242 260 266 278 284 293 298 299 302 306 309 315 313 308 316 320 322 323 329 317 312 307 311 334 328 310 295 241 175 189 201 219
215 243 249 254 265 272 265 275 277 247 281 303 293 298 305 311 318 315 312 314 320 320 324 318 324 330 335 298 283 344 347 329 311 266 222 213 213 208
242 240 266 261 267 270 276 285 289 310 321 277 297 299 308 311 315 321 322 318 323 320 335 322 339 340 331 339 308 32 352 338 328 304 229 211 227 203
254 257 252 251 257 265 275 287 297 298 292 297 295 303 310 320 320 327 327 330 328 324 323 333 337 337 326 323 317 329 352 350 338 300 290 234 256 188
215 246 255 252 242 257 275 286 298 295 320 301 296 309 320 322 323 329 326 324 309 334 347 335 321 313 313 313 343 342 347 351 342 350 330 314 248 181
204 236 233 246 253 260 279 284 275 269 282 288 310 313 321 322 329 328 331 332 338 347 322 294 341 342 348 348 345 346 352 352 347 344 18 45 319 313
203 230 214 229 225 240 268 271 263 278 289 300 308 317 323 322 328 329 330 335 342 350 338 356 22 342 342 348 334 346 356 6 357 8 15 13 24 22